星链-3910 (STARLINK-3910 )

导读 | 星芒AI

STARLINK-3910 是 SpaceX 星链计划中的一颗低轨通信卫星,属于第 11 批星链卫星(Group 11-3)。该卫星于 2023 年 9 月发射,运行在约 550 公里的轨道高度,旨在为全球用户提供高速互联网服务。作为星链星座的一部分,STARLINK-3910 采用先进推进系统和激光通信技术,提升网络稳定性和数据传输效率,支持偏远地区通信需求,助力实现全球宽带覆盖目标。

基本信息
目录编号:
52586
目录名称:
STARLINK-3910
国际标识:
2022-051BC
轨道中心:
EARTH
卫星名称:
星链-3910
卫星全名:
星链-3910 (STARLINK-3910 )
卫星状态:
在轨 (已飞行1272 天)
发射日期:
2022-05-13 UTC
国别 :
美国 (US)
星等 :
--
轨道信息
数据来源 国际轨道数据 AOE轨道数据
星历时间 2025-11-04T16:10:31+0800
15小时前
查看轨道信息
2025-10-30T06:00:00+0800
6天前
查看轨道信息
半长轴 6917.897km 6917.826km
偏心率 0.0001446 0.0001497
轨道倾角 53.218° 53.216°
近地点辐角 100.824° 91.295°
升交点赤经 321.837° 346.183°
平近点角 259.291° 310.808°
近地点 538.761km 538.655km
远地点 540.763km 540.727km
周期 95.438分钟 95.436分钟
每日圈数 15.088347 15.088581
详细信息
固有亮度:
5
最大亮度:
2.5
卫星平台:
Starlink v1.5
覆盖范围:
全球
运营商:
太空探索技术公司
运营商所在国:
美国
制造商(研发单位):
太空探索技术公司
制造商所在国:
美国
使用方式:
暂无
卫星简介
星链(Starlink)计划是由太空探索技术公司(SpaceX)提出的一个巨型低轨卫星互联网星座项目,计划在2019年至2024年间在太空搭建由约1.2万颗卫星组成的“星链”网络,其中1584颗将部署在地球上空550千米处的近地轨道,并从2020年开始工作。该卫星仍在工作。
2D轨道图
3D轨道图
轨道高度分析图
轨道倾角分析图
轨道综合分析图
查看轨道综合分析图